Torna al catalogo

VULCAN CENTAUR R/B

AttivoVLEO
NORAD 61448·ROCKET BODY·🇺🇸 United States

Lanciato Oct 4, 2024 da Cape Canaveral Space Force Station

Loading…

Prossimi Passaggi (prossime 24 ore)

TLE

ObsoletoSource: Space-Track

Epoca: Oct 4, 2024, 11:40 UTC

1 61448U 24179A   24278.48676111  .00000148  00000-0  00000+0 0  9995
2 61448  30.0000 357.3088 0004000 321.8000 177.5900 15.23529867    07

Traccia VULCAN CENTAUR R/B in tempo reale con AllMySat

Download on the App Store